• Processing (Info)

  • MPEC 2005-G70 : 2005 GE60

    The following Minor Planet Electronic Circular may be linked-to from your own Web pages, but must not otherwise be redistributed electronically.

    A form allowing access to any MPEC is at the bottom of this page.


    Read MPEC 2005-G69 Read MPEC 2005-G71


    M.P.E.C. 2005-G70                                Issued 2005 Apr. 10, 14:50 UT
    
         The Minor Planet Electronic Circulars contain information on unusual
             minor planets and routine data on comets.  They are published
       on behalf of Commission 20 of the International Astronomical Union by the
              Minor Planet Center, Smithsonian Astrophysical Observatory,
                              Cambridge, MA 02138, U.S.A.
    
                      Supported in part by the Brinson Foundation
                 Prepared using the Tamkin Foundation Computer Network
    
                                  MPC@CFA.HARVARD.EDU
              URL http://cfa-www.harvard.edu/iau/mpc.html  ISSN 1523-6714
    
                                       2005 GE60
    
    Observations:
         K05G60E* C2005 04 09.64207 13 19 32.46 -34 51 54.6          18.9 R EG070E12
         K05G60E  C2005 04 09.65057 13 19 30.11 -34 51 46.8          18.6 R EG070E12
         K05G60E  C2005 04 09.65906 13 19 27.82 -34 51 39.9          19.2 R EG070E12
         K05G60E  C2005 04 09.66757 13 19 25.47 -34 51 32.0          18.9 R EG070E12
         K05G60E  C2005 04 09.71799 13 19 11.62 -34 50 45.4          18.5 R EG070E12
         K05G60E  C2005 04 09.71887 13 19 11.40 -34 50 44.3          18.6 R EG070E12
         K05G60E  C2005 04 09.71974 13 19 11.27 -34 50 43.9          18.6 R EG070E12
         K05G60E  C2005 04 09.72061 13 19 11.09 -34 50 43.2          17.7 R EG070E12
         K05G60E  C2005 04 09.79830 13 18 50.49 -34 49 24.6          19.4 R EG070E12
         K05G60E  C2005 04 09.79918 13 18 50.34 -34 49 24.5          19.2 R EG070E12
         K05G60E  C2005 04 10.03065 13 17 59.96 -34 46 42.0          18.2 R EG070I77
         K05G60E  C2005 04 10.03385 13 17 59.11 -34 46 40.1          18.4 R EG070I77
         K05G60E  C2005 04 10.22369 13 17 09.31 -34 44 50.5          18.9 R EG070734
         K05G60E  C2005 04 10.23252 13 17 06.65 -34 44 41.0          19.1 R EG070734
         K05G60E  C2005 04 10.24135 13 17 04.19 -34 44 33.5          18.6 R EG070734
         K05G60E  C2005 04 10.26733 13 16 58.08 -34 44 06.9          19.0 R EG070854
         K05G60E  C2005 04 10.27021 13 16 57.22 -34 44 04.7          19.0 R EG070854
         K05G60E  C2005 04 10.27308 13 16 56.27 -34 44 02.7          19.0 R EG070854
         K05G60E  C2005 04 10.42766 13 16 17.94 -34 40 21.9          17.4 R EG070474
         K05G60E  C2005 04 10.42928 13 16 17.48 -34 40 20.6          17.4 R EG070474
         K05G60E  C2005 04 10.43067 13 16 17.10 -34 40 19.6          17.4 R EG070474
         K05G60E  C2005 04 10.50206 13 15 58.76 -34 39 29.9          18.5 R EG070E12
         K05G60E  C2005 04 10.50294 13 15 58.49 -34 39 28.8          19.3 R EG070E12
         K05G60E  C2005 04 10.50381 13 15 58.28 -34 39 28.5          19.1 R EG070E12
         K05G60E  C2005 04 10.50468 13 15 58.00 -34 39 27.2          18.8 R EG070E12
    
    Observer details:
    474 Mount John Observatory, Lake Tekapo.  Observer A. C. Gilmore.  Measurer
        P. M. Kilmartin.  1.0-m f/7.7 reflector + CCD.
    734 Farpoint Observatory.  Observer G. Hug.  0.7-m reflector + CCD.
    854 Sabino Canyon Observatory, Tucson.  Observer J. E. McGaha.  0.36-m f/10.0
        Schmidt-Cassegrain + CCD.
    E12 Siding Spring Survey.  Observer R. H. McNaught.  Measurers E. C. Beshore,
        C. M. Casey, E. J. Christensen, G. J. Garradd, A. D. Grauer, R. E. Hill,
        S. M. Larson, R. H. McNaught.  0.5-m Uppsala Schmidt + CCD.
    I77 CEAMIG-REA Observatory, Belo Horizonte.  Observers C. Jacques, E. Pimentel.
        Measurer C. Jacques.  0.30-m f/3.0 Schmidt-Cassegrain + CCD.
    
    Orbital elements:
    2005 GE60
    Epoch 2005 Mar. 31.0 TT = JDT 2453460.5                 MPC
    M 228.63344              (2000.0)            P               Q
    n   1.05032081     Peri.  112.84139     +0.95077413     +0.30083764
    a   0.9584911      Node   229.73530     -0.30783152     +0.88933340
    e   0.2465580      Incl.    5.59019     -0.03561345     +0.34435856
    P   0.94           H   22.2           G   0.15
    From 23 observations 2005 Apr. 9-10.
    
    Ephemeris:
    2005 GE60                a,e,i = 0.96, 0.25, 6                   q = 0.7222
    Date    TT    R. A. (2000) Decl.     Delta      r     Elong.  Phase     V
    2005 04 10    13 18.08   -34 47.0    0.125    1.115   153.1    24.0    19.0
    2005 04 12    13 09.18   -34 13.3    0.117    1.109   154.2    23.1    18.9
    2005 04 14    12 59.23   -33 27.9    0.110    1.103   154.9    22.7    18.7
    2005 04 16    12 48.19   -32 28.5    0.103    1.097   155.0    22.8    18.5
    2005 04 18    12 36.04   -31 12.7    0.0958   1.091   154.2    23.6    18.4
    2005 04 20    12 22.73   -29 37.5    0.0895   1.085   152.5    25.3    18.3
    2005 04 22    12 08.28   -27 40.0    0.0836   1.078   149.8    27.9    18.2
    2005 04 24    11 52.70   -25 16.9    0.0782   1.071   146.1    31.5    18.2
    2005 04 26    11 36.04   -22 25.5    0.0733   1.065   141.5    36.0    18.1
    2005 04 28    11 18.40   -19 03.8    0.0691   1.058   136.0    41.4    18.1
    2005 04 30    10 59.90   -15 11.4    0.0656   1.050   129.6    47.6    18.2
    2005 05 02    10 40.72   -10 50.2    0.0629   1.043   122.5    54.6    18.3
    2005 05 04    10 21.04   -06 05.6    0.0610   1.035   114.9    62.1    18.4
    2005 05 06    10 01.09   -01 05.5    0.0600   1.028   106.8    70.0    18.6
    2005 05 08    09 41.08   +03 59.6    0.0599   1.020    98.6    78.0    18.9
    2005 05 10    09 21.18   +08 59.1    0.0607   1.012    90.5    86.1    19.2
    2005 05 12    09 01.54   +13 43.3    0.0622   1.004    82.5    93.9    19.5
    2005 05 14    08 42.30   +18 05.3    0.0645   0.996    75.0   101.5    19.9
    2005 05 16    08 23.53   +22 00.7    0.0675   0.988    67.8   108.6    20.4
    2005 05 18    08 05.31   +25 27.8    0.0710   0.979    61.1   115.2    20.9
    2005 05 20    07 47.69   +28 26.9    0.0752   0.971    55.0   121.4    21.5
    
    Timothy B. Spahr             (C) Copyright 2005 MPC           M.P.E.C. 2005-G70
    

    Read MPEC 2005-G69 Read MPEC 2005-G71


    MPEC number:

    Enter an MPEC number in one of the following forms:

    • 1997-B01 (the full form)
    • J97B01 (the packed version of the full form)
    • B01 (the abbreviated form)